Time,TemperatureF,DewpointF,PressureIn,WindDirection,WindDirectionDegrees,WindSpeedMPH,WindSpeedGustMPH,Humidity,HourlyPrecipIn,Conditions,Clouds,dailyrainin,SoftwareType,DateUTC
2013-01-08 00:02:00,32.0,31.0,-100.00,West,267,5.0,5.0,95,-99.99,,,-99.99,,2013-01-08 07:02:00,
2013-01-08 00:12:00,32.0,31.0,-100.00,West,267,5.0,5.0,95,-99.99,,,-99.99,,2013-01-08 07:12:00,
2013-01-08 00:22:00,34.0,32.0,-100.00,WNW,282,12.0,16.0,92,-99.99,,,-99.99,,2013-01-08 07:22:00,
2013-01-08 00:32:00,36.0,34.0,-100.00,West,277,8.0,11.0,91,-99.99,,,-99.99,,2013-01-08 07:32:00,
2013-01-08 00:42:00,36.0,34.0,-100.00,West,277,8.0,11.0,91,-99.99,,,-99.99,,2013-01-08 07:42:00,
2013-01-08 00:52:00,38.0,34.0,-100.00,WNW,299,15.0,15.0,84,-99.99,,,-99.99,,2013-01-08 07:52:00,
2013-01-08 01:02:00,38.0,33.0,-100.00,West,278,8.0,18.0,82,-99.99,,,-99.99,,2013-01-08 08:02:00,
2013-01-08 01:12:00,38.0,33.0,-100.00,West,278,8.0,18.0,82,-99.99,,,-99.99,,2013-01-08 08:12:00,
2013-01-08 01:22:00,37.0,33.0,-100.00,WNW,286,5.0,8.0,86,-99.99,,,-99.99,,2013-01-08 08:22:00,
2013-01-08 01:32:00,36.0,32.0,-100.00,West,275,6.0,9.0,86,-99.99,,,-99.99,,2013-01-08 08:32:00,
2013-01-08 01:42:00,36.0,32.0,-100.00,West,275,6.0,9.0,86,-99.99,,,-99.99,,2013-01-08 08:42:00,
2013-01-08 01:53:00,36.0,33.0,-100.00,WNW,292,4.0,7.0,87,-99.99,,,-99.99,,2013-01-08 08:53:00,
2013-01-08 02:02:00,36.0,33.0,-100.00,West,262,7.0,12.0,88,-99.99,,,-99.99,,2013-01-08 09:02:00,
2013-01-08 02:12:00,36.0,33.0,-100.00,WNW,292,11.0,12.0,88,-99.99,,,-99.99,,2013-01-08 09:12:00,
2013-01-08 02:22:00,36.0,33.0,-100.00,WNW,292,11.0,12.0,88,-99.99,,,-99.99,,2013-01-08 09:22:00,
2013-01-08 02:32:00,36.0,33.0,-100.00,West,279,8.0,9.0,88,-99.99,,,-99.99,,2013-01-08 09:32:00,
2013-01-08 02:42:00,36.0,33.0,-100.00,West,279,8.0,9.0,88,-99.99,,,-99.99,,2013-01-08 09:42:00,
2013-01-08 02:52:00,36.0,32.0,-100.00,WNW,300,6.0,13.0,86,-99.99,,,-99.99,,2013-01-08 09:52:00,
2013-01-08 03:02:00,36.0,32.0,-100.00,NNW,340,11.0,12.0,86,-99.99,,,-99.99,,2013-01-08 10:02:00,
2013-01-08 03:12:00,36.0,32.0,-100.00,NNW,340,11.0,12.0,86,-99.99,,,-99.99,,2013-01-08 10:12:00,
2013-01-08 03:22:00,36.0,32.0,-100.00,NNW,329,6.0,9.0,86,-99.99,,,-99.99,,2013-01-08 10:22:00,
2013-01-08 03:32:00,36.0,32.0,-100.00,NW,312,5.0,5.0,85,-99.99,,,-99.99,,2013-01-08 10:32:00,
2013-01-08 03:42:00,36.0,32.0,-100.00,NW,312,5.0,5.0,85,-99.99,,,-99.99,,2013-01-08 10:42:00,
2013-01-08 03:52:00,36.0,31.0,-100.00,WNW,299,5.0,7.0,83,-99.99,,,-99.99,,2013-01-08 10:52:00,
2013-01-08 04:02:00,36.0,31.0,-100.00,WNW,299,5.0,7.0,83,-99.99,,,-99.99,,2013-01-08 11:02:00,
2013-01-08 04:12:00,36.0,31.0,-100.00,WNW,299,5.0,7.0,83,-99.99,,,-99.99,,2013-01-08 11:12:00,
2013-01-08 04:22:00,36.0,31.0,-100.00,WNW,295,0.0,0.0,83,-99.99,,,-99.99,,2013-01-08 11:22:00,
2013-01-08 04:32:00,36.0,31.0,-100.00,NW,324,3.0,6.0,82,-99.99,,,-99.99,,2013-01-08 11:32:00,
2013-01-08 04:42:00,36.0,31.0,-100.00,NW,324,3.0,6.0,82,-99.99,,,-99.99,,2013-01-08 11:42:00,
2013-01-08 04:53:00,36.0,32.0,-100.00,NNW,329,0.0,0.0,84,-99.99,,,-99.99,,2013-01-08 11:53:00,
2013-01-08 05:02:00,35.0,31.0,-100.00,NE,42,0.0,0.0,86,-99.99,,,-99.99,,2013-01-08 12:02:00,
2013-01-08 05:12:00,35.0,31.0,-100.00,NE,42,0.0,0.0,86,-99.99,,,-99.99,,2013-01-08 12:12:00,
2013-01-08 05:22:00,35.0,31.0,-100.00,NE,56,0.0,0.0,85,-99.99,,,-99.99,,2013-01-08 12:22:00,
2013-01-08 05:32:00,35.0,30.0,-100.00,NNW,341,5.0,9.0,83,-99.99,,,-99.99,,2013-01-08 12:32:00,
2013-01-08 05:42:00,35.0,30.0,-100.00,NNW,341,5.0,9.0,83,-99.99,,,-99.99,,2013-01-08 12:42:00,
2013-01-08 05:53:00,36.0,31.0,-100.00,NW,309,4.0,8.0,83,-99.99,,,-99.99,,2013-01-08 12:53:00,
2013-01-08 06:03:00,36.0,31.0,-100.00,NW,309,4.0,8.0,83,-99.99,,,-99.99,,2013-01-08 13:03:00,
2013-01-08 06:12:00,36.0,31.0,-100.00,NW,309,4.0,8.0,83,-99.99,,,-99.99,,2013-01-08 13:12:00,
2013-01-08 06:22:00,34.0,30.0,-100.00,West,268,0.0,0.0,85,-99.99,,,-99.99,,2013-01-08 13:22:00,
2013-01-08 06:33:00,34.0,30.0,-100.00,WNW,303,7.0,7.0,85,-99.99,,,-99.99,,2013-01-08 13:33:00,
2013-01-08 06:43:00,34.0,30.0,-100.00,WNW,303,7.0,7.0,85,-99.99,,,-99.99,,2013-01-08 13:43:00,
2013-01-08 06:53:00,35.0,30.0,-100.00,NNW,329,6.0,9.0,83,-99.99,,,-99.99,,2013-01-08 13:53:00,
2013-01-08 07:02:00,35.0,30.0,-100.00,NW,313,7.0,13.0,82,-99.99,,,-99.99,,2013-01-08 14:02:00,
2013-01-08 07:12:00,35.0,30.0,-100.00,NW,313,7.0,13.0,82,-99.99,,,-99.99,,2013-01-08 14:12:00,
2013-01-08 07:23:00,36.0,30.0,-100.00,NNE,23,4.0,15.0,80,-99.99,,,-99.99,,2013-01-08 14:23:00,
2013-01-08 07:33:00,36.0,31.0,-100.00,North,7,8.0,19.0,82,-99.99,,,-99.99,,2013-01-08 14:33:00,
2013-01-08 07:42:00,36.0,31.0,-100.00,North,7,8.0,19.0,82,-99.99,,,-99.99,,2013-01-08 14:42:00,
2013-01-08 07:53:00,36.0,32.0,-100.00,West,274,9.0,16.0,85,-99.99,,,-99.99,,2013-01-08 14:53:00,
2013-01-08 08:02:00,36.0,32.0,-100.00,NNW,341,7.0,19.0,85,-99.99,,,-99.99,,2013-01-08 15:02:00,
2013-01-08 08:12:00,36.0,32.0,-100.00,NNW,341,7.0,19.0,85,-99.99,,,-99.99,,2013-01-08 15:12:00,
2013-01-08 08:22:00,35.0,31.0,-100.00,North,355,4.0,11.0,86,-99.99,,,-99.99,,2013-01-08 15:22:00,
2013-01-08 08:33:00,35.0,31.0,-100.00,North,355,4.0,11.0,86,-99.99,,,-99.99,,2013-01-08 15:33:00,
2013-01-08 08:43:00,35.0,31.0,-100.00,North,355,4.0,11.0,86,-99.99,,,-99.99,,2013-01-08 15:43:00,
2013-01-08 08:53:00,33.0,31.0,-100.00,WNW,293,8.0,16.0,92,-99.99,,,-99.99,,2013-01-08 15:53:00,
2013-01-08 09:03:00,33.0,31.0,-100.00,WNW,293,8.0,16.0,92,-99.99,,,-99.99,,2013-01-08 16:03:00,
2013-01-08 09:12:00,33.0,31.0,-100.00,WNW,293,8.0,16.0,92,-99.99,,,-99.99,,2013-01-08 16:12:00,
2013-01-08 09:22:00,34.0,32.0,-100.00,NW,323,4.0,10.0,92,-99.99,,,-99.99,,2013-01-08 16:22:00,
2013-01-08 09:33:00,34.0,32.0,-100.00,NW,323,4.0,10.0,92,-99.99,,,-99.99,,2013-01-08 16:33:00,
2013-01-08 09:43:00,34.0,32.0,-100.00,NW,323,4.0,10.0,92,-99.99,,,-99.99,,2013-01-08 16:43:00,
2013-01-08 09:53:00,33.0,31.0,-100.00,NW,315,12.0,32.0,93,-99.99,,,-99.99,,2013-01-08 16:53:00,
2013-01-08 10:01:00,31.0,31.0,-100.00,NW,322,8.0,15.0,99,-99.99,,,-99.99,,2013-01-08 17:01:00,
2013-01-08 10:03:00,33.0,31.0,-100.00,NW,315,12.0,32.0,93,-99.99,,,-99.99,,2013-01-08 17:03:00,
2013-01-08 10:13:00,33.0,31.0,-100.00,NW,315,12.0,32.0,93,-99.99,,,-99.99,,2013-01-08 17:13:00,
2013-01-08 10:23:00,31.0,31.0,-100.00,NW,322,8.0,15.0,99,-99.99,,,-99.99,,2013-01-08 17:23:00,
2013-01-08 10:34:00,31.0,31.0,-100.00,NW,322,8.0,15.0,99,-99.99,,,-99.99,,2013-01-08 17:34:00,
2013-01-08 10:43:00,31.0,31.0,-100.00,NW,322,8.0,15.0,99,-99.99,,,-99.99,,2013-01-08 17:43:00,
2013-01-08 10:53:00,31.0,31.0,-100.00,NW,322,8.0,15.0,99,-99.99,,,-99.99,,2013-01-08 17:53:00,
2013-01-08 11:24:00,30.0,30.0,-100.00,North,357,5.0,15.0,100,-99.99,,,-99.99,,2013-01-08 18:24:00,
2013-01-08 11:33:00,30.0,30.0,-100.00,North,357,5.0,15.0,100,-99.99,,,-99.99,,2013-01-08 18:33:00,
2013-01-08 11:43:00,30.0,30.0,-100.00,North,357,5.0,15.0,100,-99.99,,,-99.99,,2013-01-08 18:43:00,
2013-01-08 11:53:00,30.0,30.0,-100.00,WNW,295,8.0,10.0,100,-99.99,,,-99.99,,2013-01-08 18:53:00,
2013-01-08 12:03:00,30.0,30.0,-100.00,NE,40,3.0,12.0,100,-99.99,,,-99.99,,2013-01-08 19:03:00,
2013-01-08 12:12:00,30.0,30.0,-100.00,NE,40,3.0,12.0,100,-99.99,,,-99.99,,2013-01-08 19:12:00,
2013-01-08 12:22:00,31.0,31.0,-100.00,North,2,0.0,16.0,100,-99.99,,,-99.99,,2013-01-08 19:22:00,
2013-01-08 12:32:00,31.0,31.0,-100.00,North,2,0.0,16.0,100,-99.99,,,-99.99,,2013-01-08 19:32:00,
2013-01-08 12:42:00,31.0,31.0,-100.00,North,2,0.0,16.0,100,-99.99,,,-99.99,,2013-01-08 19:42:00,
2013-01-08 12:53:00,30.0,30.0,-100.00,North,358,5.0,10.0,100,-99.99,,,-99.99,,2013-01-08 19:53:00,
2013-01-08 13:02:00,30.0,30.0,-100.00,NNE,26,15.0,15.0,100,-99.99,,,-99.99,,2013-01-08 20:02:00,
2013-01-08 13:12:00,30.0,30.0,-100.00,NNE,26,15.0,15.0,100,-99.99,,,-99.99,,2013-01-08 20:12:00,
2013-01-08 13:23:00,30.0,30.0,-100.00,ENE,70,7.0,16.0,100,-99.99,,,-99.99,,2013-01-08 20:23:00,
2013-01-08 13:33:00,30.0,30.0,-100.00,NE,54,6.0,9.0,99,-99.99,,,-99.99,,2013-01-08 20:33:00,
2013-01-08 13:43:00,30.0,30.0,-100.00,NE,54,6.0,9.0,99,-99.99,,,-99.99,,2013-01-08 20:43:00,
2013-01-08 13:53:00,30.0,30.0,-100.00,NNE,12,3.0,13.0,99,-99.99,,,-99.99,,2013-01-08 20:53:00,
2013-01-08 14:02:00,30.0,30.0,-100.00,NNW,336,5.0,9.0,99,-99.99,,,-99.99,,2013-01-08 21:02:00,
2013-01-08 14:12:00,30.0,30.0,-100.00,NNW,336,5.0,9.0,99,-99.99,,,-99.99,,2013-01-08 21:12:00,
2013-01-08 14:22:00,30.0,29.0,-100.00,NW,317,9.0,12.0,98,-99.99,,,-99.99,,2013-01-08 21:22:00,
2013-01-08 14:33:00,30.0,29.0,-100.00,NNW,336,4.0,11.0,97,-99.99,,,-99.99,,2013-01-08 21:33:00,
2013-01-08 14:43:00,30.0,29.0,-100.00,NNW,336,4.0,11.0,97,-99.99,,,-99.99,,2013-01-08 21:43:00,
2013-01-08 14:53:00,30.0,29.0,-100.00,NNW,340,6.0,15.0,97,-99.99,,,-99.99,,2013-01-08 21:53:00,
2013-01-08 15:03:00,30.0,29.0,-100.00,NNW,340,6.0,15.0,97,-99.99,,,-99.99,,2013-01-08 22:03:00,
2013-01-08 15:12:00,30.0,29.0,-100.00,NNW,340,6.0,15.0,97,-99.99,,,-99.99,,2013-01-08 22:12:00,
2013-01-08 15:22:00,31.0,30.0,-100.00,NNW,336,3.0,15.0,95,-99.99,,,-99.99,,2013-01-08 22:22:00,
2013-01-08 15:32:00,31.0,29.0,-100.00,NW,323,5.0,12.0,94,-99.99,,,-99.99,,2013-01-08 22:32:00,
2013-01-08 15:43:00,31.0,29.0,-100.00,NW,323,5.0,12.0,94,-99.99,,,-99.99,,2013-01-08 22:43:00,
2013-01-08 15:53:00,31.0,29.0,-100.00,NNW,347,9.0,16.0,93,-99.99,,,-99.99,,2013-01-08 22:53:00,
2013-01-08 16:02:00,32.0,29.0,-100.00,NNW,327,14.0,21.0,87,-99.99,,,-99.99,,2013-01-08 23:02:00,
2013-01-08 16:12:00,32.0,29.0,-100.00,NNW,327,14.0,21.0,87,-99.99,,,-99.99,,2013-01-08 23:12:00,
2013-01-08 16:22:00,33.0,29.0,-100.00,NNW,344,12.0,16.0,84,-99.99,,,-99.99,,2013-01-08 23:22:00,
2013-01-08 16:32:00,33.0,28.0,-100.00,NNW,333,7.0,16.0,83,-99.99,,,-99.99,,2013-01-08 23:32:00,
2013-01-08 16:43:00,33.0,28.0,-100.00,NNW,333,7.0,16.0,83,-99.99,,,-99.99,,2013-01-08 23:43:00,
2013-01-08 16:53:00,33.0,26.0,-100.00,WNW,300,13.0,16.0,75,-99.99,,,-99.99,,2013-01-08 23:53:00,
2013-01-08 17:02:00,33.0,26.0,-100.00,North,358,5.0,14.0,74,-99.99,,,-99.99,,2013-01-09 00:02:00,
2013-01-08 17:12:00,33.0,26.0,-100.00,North,358,5.0,14.0,74,-99.99,,,-99.99,,2013-01-09 00:12:00,
2013-01-08 17:22:00,32.0,24.0,-100.00,North,358,4.0,11.0,72,-99.99,,,-99.99,,2013-01-09 00:22:00,
2013-01-08 17:33:00,32.0,24.0,-100.00,North,358,4.0,11.0,72,-99.99,,,-99.99,,2013-01-09 00:33:00,
2013-01-08 17:42:00,32.0,24.0,-100.00,North,358,4.0,11.0,72,-99.99,,,-99.99,,2013-01-09 00:42:00,
2013-01-08 17:53:00,32.0,25.0,-100.00,NW,322,10.0,12.0,74,-99.99,,,-99.99,,2013-01-09 00:53:00,
2013-01-08 18:02:00,32.0,25.0,-100.00,NW,322,10.0,12.0,74,-99.99,,,-99.99,,2013-01-09 01:02:00,
2013-01-08 18:12:00,32.0,25.0,-100.00,NW,322,10.0,12.0,74,-99.99,,,-99.99,,2013-01-09 01:12:00,
2013-01-08 18:22:00,31.0,24.0,-100.00,NNE,18,4.0,6.0,75,-99.99,,,-99.99,,2013-01-09 01:22:00,
2013-01-08 18:32:00,31.0,24.0,-100.00,NNE,32,0.0,6.0,76,-99.99,,,-99.99,,2013-01-09 01:32:00,
2013-01-08 18:42:00,31.0,24.0,-100.00,NNE,32,0.0,6.0,76,-99.99,,,-99.99,,2013-01-09 01:42:00,
2013-01-08 18:52:00,30.0,24.0,-100.00,North,355,0.0,0.0,77,-99.99,,,-99.99,,2013-01-09 01:52:00,
2013-01-08 19:02:00,29.0,23.0,-100.00,North,355,0.0,0.0,79,-99.99,,,-99.99,,2013-01-09 02:02:00,
2013-01-08 19:12:00,29.0,23.0,-100.00,North,355,0.0,0.0,79,-99.99,,,-99.99,,2013-01-09 02:12:00,
2013-01-08 19:22:00,29.0,23.0,-100.00,North,0,0.0,0.0,77,-99.99,,,-99.99,,2013-01-09 02:22:00,
2013-01-08 19:32:00,29.0,23.0,-100.00,North,0,0.0,0.0,77,-99.99,,,-99.99,,2013-01-09 02:32:00,
2013-01-08 19:42:00,29.0,23.0,-100.00,North,0,0.0,0.0,77,-99.99,,,-99.99,,2013-01-09 02:42:00,
2013-01-08 19:53:00,29.0,23.0,-100.00,NNW,347,0.0,0.0,77,-99.99,,,-99.99,,2013-01-09 02:53:00,
2013-01-08 20:03:00,29.0,23.0,-100.00,NNW,347,0.0,0.0,77,-99.99,,,-99.99,,2013-01-09 03:03:00,
2013-01-08 20:12:00,29.0,23.0,-100.00,NNW,347,0.0,0.0,77,-99.99,,,-99.99,,2013-01-09 03:12:00,
2013-01-08 20:22:00,29.0,22.0,-100.00,NNW,347,0.0,0.0,76,-99.99,,,-99.99,,2013-01-09 03:22:00,
2013-01-08 20:33:00,29.0,22.0,-100.00,NNW,347,0.0,0.0,76,-99.99,,,-99.99,,2013-01-09 03:33:00,
2013-01-08 20:43:00,29.0,22.0,-100.00,NNW,347,0.0,0.0,76,-99.99,,,-99.99,,2013-01-09 03:43:00,
2013-01-08 20:53:00,27.0,22.0,-100.00,WSW,248,0.0,0.0,81,-99.99,,,-99.99,,2013-01-09 03:53:00,
2013-01-08 21:02:00,27.0,22.0,-100.00,WSW,248,0.0,0.0,81,-99.99,,,-99.99,,2013-01-09 04:02:00,
2013-01-08 21:12:00,27.0,22.0,-100.00,WSW,248,0.0,0.0,81,-99.99,,,-99.99,,2013-01-09 04:12:00,
2013-01-08 21:22:00,27.0,22.0,-100.00,WSW,248,0.0,0.0,80,-99.99,,,-99.99,,2013-01-09 04:22:00,
2013-01-08 21:32:00,26.0,21.0,-100.00,WSW,248,0.0,0.0,81,-99.99,,,-99.99,,2013-01-09 04:32:00,
2013-01-08 21:42:00,26.0,21.0,-100.00,WSW,248,0.0,0.0,81,-99.99,,,-99.99,,2013-01-09 04:42:00,
2013-01-08 21:52:00,26.0,21.0,-100.00,WSW,248,0.0,0.0,81,-99.99,,,-99.99,,2013-01-09 04:52:00,
2013-01-08 22:03:00,26.0,20.0,-100.00,WNW,289,0.0,5.0,79,-99.99,,,-99.99,,2013-01-09 05:03:00,
2013-01-08 22:12:00,26.0,20.0,-100.00,WNW,289,0.0,5.0,79,-99.99,,,-99.99,,2013-01-09 05:12:00,
2013-01-08 22:22:00,25.0,19.0,-100.00,West,277,0.0,0.0,79,-99.99,,,-99.99,,2013-01-09 05:22:00,
2013-01-08 22:33:00,25.0,20.0,-100.00,West,277,0.0,0.0,80,-99.99,,,-99.99,,2013-01-09 05:33:00,
2013-01-08 22:42:00,25.0,20.0,-100.00,West,277,0.0,0.0,80,-99.99,,,-99.99,,2013-01-09 05:42:00,
2013-01-08 22:52:00,25.0,21.0,-100.00,West,277,0.0,0.0,83,-99.99,,,-99.99,,2013-01-09 05:52:00,
2013-01-08 23:02:00,25.0,21.0,-100.00,West,277,0.0,0.0,83,-99.99,,,-99.99,,2013-01-09 06:02:00,
2013-01-08 23:12:00,25.0,21.0,-100.00,West,277,0.0,0.0,83,-99.99,,,-99.99,,2013-01-09 06:12:00,
2013-01-08 23:22:00,25.0,21.0,-100.00,SSW,202,2.0,3.0,84,-99.99,,,-99.99,,2013-01-09 06:22:00,
2013-01-08 23:32:00,26.0,22.0,-100.00,WSW,241,0.0,0.0,84,-99.99,,,-99.99,,2013-01-09 06:32:00,
2013-01-08 23:42:00,26.0,22.0,-100.00,WSW,241,0.0,0.0,84,-99.99,,,-99.99,,2013-01-09 06:42:00,
2013-01-08 23:52:00,26.0,22.0,-100.00,WSW,241,0.0,0.0,84,-99.99,,,-99.99,,2013-01-09 06:52:00,